[[{"header":{"parameterUnit":"m.s-1","parameterCategory":1,"la1":30.2991,"la2":30.254,"lo1":-89.0895,"lo2":-89.0444,"dy":0.0017,"dx":0.0017,"nx":28,"ny":28,"refTime":"2025-07-09T09:00:00:Z","depth":0,"parameterNumber":2,"parameterNumberName":"U-component_of_WINDS"},"data":[0,0,0,0,0,0,0,0,0,0,0,0,0,0,0,0,0,0,0,0,0,0,0,0,0,0,0,0,0,0,0,0,0,0,0,0,0,0,0,0,0,0,0,0,0,0,0,0,0,0,0,0,0,0,0,0,0,0,4.2975,4.2976,0,4.3098,4.31,4.3101,4.2998,4.2994,4.299,4.2986,4.3118,4.3125,4.3132,0,0,0,0,0,0,0,0,0,0,0,0,0,4.2654,4.2661,4.2975,4.2976,4.2978,4.3098,4.31,4.3101,4.2999,4.2994,4.2988,4.2984,4.3115,4.3124,4.3133,0,0,0,0,0,0,0,0,0,0,0,0,0,4.2788,4.2663,4.2975,4.2941,4.2939,4.3098,4.31,4.3102,4.3,4.2994,4.2987,4.2981,4.3112,4.3123,4.3134,4.3334,0,0,4.3169,4.3174,0,0,0,0,0,0,0,0,4.278,4.2799,4.2944,4.2944,4.2942,4.3026,4.3035,4.318,4.3002,4.2977,4.2985,4.2978,4.3093,4.3105,4.3143,4.334,4.3346,4.317,4.3177,4.3182,4.3185,0,0,0,0,0,0,0,4.2771,4.2794,4.3024,4.2947,4.2945,4.2921,4.2933,4.3062,4.307,4.2979,4.2972,4.2987,4.3091,4.3132,4.3145,4.3348,4.317,4.318,4.3187,4.3191,4.3713,4.372,0,0,0,0,0,0,4.2765,4.2787,4.302,4.3027,4.2843,4.2932,4.2945,4.3006,4.3068,4.3071,4.2993,4.2982,4.3116,4.3132,4.3149,4.3386,4.3182,4.3192,4.3199,4.3706,4.3715,4.3723,0,0,0,0,0,0,4.2758,4.2786,4.3015,4.2905,4.2932,4.2945,4.3013,4.3012,4.3053,4.3079,4.308,4.3033,4.3112,4.3134,4.3288,4.339,4.3197,4.3208,4.3698,4.3709,4.3719,4.3863,0,0,0,0,0,0,4.2749,4.2785,4.286,4.2907,4.2938,4.3151,4.302,4.3019,4.3072,4.3059,4.3117,4.3121,4.3108,4.3272,4.3299,4.3402,4.3216,4.3689,4.3703,4.3716,4.3849,4.3877,4.3901,0,0,0,0,0,4.2738,4.2897,4.2864,4.2893,4.3032,4.3157,4.3175,4.3156,4.308,4.3157,4.3173,4.3119,4.3374,4.3288,4.3319,4.3426,4.3683,4.3699,4.3715,4.3837,4.3871,4.39,0,0,0,0,0,0,4.2863,4.2903,4.2867,4.3045,4.3098,4.3139,4.3235,4.3193,4.327,4.3255,4.3229,4.3243,4.3406,4.3431,4.3335,4.3622,4.3516,4.3539,4.3599,4.3632,4.3657,4.3648,4.3226,0,0,0,0,0,4.2911,4.3007,4.3037,4.3192,4.322,4.3223,4.3276,4.3257,4.3311,4.3334,4.3362,4.3418,4.3511,4.3573,4.3659,4.3852,4.3863,4.394,4.3966,4.3987,4.4008,4.411,4.4145,4.3775,4.3775,4.3775,0,0,4.3012,4.3045,4.3108,4.3218,4.3256,4.3358,4.3243,4.3355,4.343,4.3352,4.3498,4.3521,4.3582,4.3756,4.3834,4.3783,4.4112,4.4008,4.4024,4.4033,4.413,4.4165,4.4197,4.3786,4.3784,4.3782,0,0,4.3248,4.3282,4.3414,4.3455,4.3514,4.3515,4.3546,4.3594,4.3605,4.3751,4.3694,4.3784,4.3944,4.3989,4.4034,4.4284,4.4237,4.4314,4.445,4.455,4.4579,4.4605,4.4694,4.4727,4.4334,4.4334,4.4334,0,4.3367,4.3515,4.3488,4.3604,4.3654,4.3585,4.3719,4.376,4.3846,4.3882,4.3822,4.4021,4.4057,4.424,4.4301,4.434,4.4376,4.4307,4.4577,4.4602,4.4626,4.4711,4.4745,4.4343,4.4342,4.4341,4.434,0,4.3658,4.3762,4.3862,4.3943,4.4004,4.4129,4.4122,4.4187,4.4162,4.4169,4.4319,4.436,4.4453,4.4495,4.4473,4.4676,4.4641,4.458,4.4474,4.4671,4.475,4.4782,4.4355,4.4352,4.435,4.4347,0,0,4.3978,4.4041,4.4078,4.4114,4.4173,4.4253,4.4375,4.4464,4.452,4.4581,4.4683,4.4819,4.4761,4.4812,4.4793,4.4882,4.5077,4.4809,4.481,4.4857,4.5303,4.5349,4.5387,4.5045,4.5052,4.5056,4.5297,0,4.4216,4.4425,4.4403,4.4603,4.4699,4.4633,4.4739,4.4787,4.4797,4.488,4.4891,4.4988,4.4905,4.4935,4.5019,4.5035,4.5166,4.5018,4.5141,4.5146,4.5128,4.5428,4.5478,4.5704,4.5328,4.5334,4.5337,0,4.4522,4.4591,4.4799,4.4842,4.4881,4.4977,4.5056,4.5136,4.5189,4.519,4.5245,4.5211,4.5334,4.5224,4.5393,4.5293,4.5342,4.5357,4.5365,4.5377,4.5254,4.5449,4.5775,4.581,4.5386,4.5382,4.5379,0,4.4734,4.4879,4.5022,4.5055,4.5109,4.5177,4.5203,4.5249,4.5304,4.5373,4.5408,4.5492,4.5539,4.5605,4.5594,4.5515,4.5767,4.5656,4.5772,4.5772,4.5829,4.5826,4.6169,4.586,4.5859,4.5859,4.5858,0,4.5003,4.5133,4.5118,4.5207,4.535,4.5325,4.5468,4.5486,4.5528,4.5619,4.5568,4.5655,4.5635,4.5722,4.5715,4.5856,4.5878,4.5882,4.5879,4.5887,4.5887,4.592,4.5904,4.5868,4.5866,4.5864,4.5862,0,4.5265,4.526,4.5412,4.5449,4.5461,4.5566,4.5598,4.5682,4.5686,4.5802,4.5828,4.5836,4.5935,4.5931,4.6044,4.6039,4.6213,4.6191,4.6194,4.619,4.6306,4.6295,4.6683,4.6732,4.6391,4.6394,4.6397,0,4.5437,4.5536,4.5582,4.5638,4.5668,4.576,4.5814,4.5792,4.5851,4.5918,4.5994,4.6088,4.6162,4.6324,4.634,4.6427,4.6407,4.6536,4.642,4.6424,4.6409,4.6403,4.6413,4.656,4.6564,4.6567,4.6569,0,4.5743,4.5735,4.5814,4.5893,4.5959,4.602,4.6076,4.6125,4.6109,4.6178,4.6278,4.6335,4.6449,4.6543,4.6625,4.6653,4.661,4.6606,4.6637,4.6647,4.6645,4.6647,4.6257,4.6597,4.6595,4.6593,4.6591,4.659,4.5966,4.605,4.6095,4.6185,4.6224,4.6277,4.6356,4.6369,4.6451,4.6541,4.6523,4.6635,4.6685,4.679,4.6825,4.6913,4.6867,4.6912,4.6924,4.6936,4.6949,4.663,4.6928,4.6927,4.6926,4.6926,4.6925,0,4.6269,4.6294,4.6377,4.6455,4.6526,4.6476,4.6535,4.6598,4.6696,4.6745,4.6818,4.6932,4.7022,4.7045,4.7132,4.7198,4.718,4.7222,4.7217,4.7224,4.6985,4.6949,4.7234,4.7234,4.7234,4.7234,4.7234,4.7234,4.6436,4.6574,4.6571,4.6729,4.6753,4.686,4.6898,4.6947,4.6985,4.7114,4.7188,4.7201,4.724,4.7329,4.741,4.7414,4.7449,4.7499,4.7496,4.7272,4.7241,4.7212,4.7178,4.7506,4.7507,4.7727,4.7729,4.7731]},{"header":{"parameterUnit":"m.s-1","parameterCategory":1,"la1":30.2991,"la2":30.254,"lo1":-89.0895,"lo2":-89.0444,"dy":0.0017,"dx":0.0017,"nx":28,"ny":28,"refTime":"2025-07-09T09:00:00:Z","depth":0,"parameterNumber":3,"parameterNumberName":"V-component_of_WINDS"},"data":[0,0,0,0,0,0,0,0,0,0,0,0,0,0,0,0,0,0,0,0,0,0,0,0,0,0,0,0,0,0,0,0,0,0,0,0,0,0,0,0,0,0,0,0,0,0,0,0,0,0,0,0,0,0,0,0,0,0,-1.4715,-1.4715,0,-1.4707,-1.4707,-1.4707,-1.4677,-1.4676,-1.4676,-1.4675,-1.4667,-1.4667,-1.4668,0,0,0,0,0,0,0,0,0,0,0,0,0,-1.4707,-1.4707,-1.4715,-1.4715,-1.4715,-1.4707,-1.4707,-1.4707,-1.4677,-1.4676,-1.4676,-1.4675,-1.4667,-1.4667,-1.4668,0,0,0,0,0,0,0,0,0,0,0,0,0,-1.4706,-1.4707,-1.4715,-1.4699,-1.4698,-1.4707,-1.4707,-1.4707,-1.4677,-1.4676,-1.4675,-1.4674,-1.4667,-1.4667,-1.4668,-1.4692,0,0,-1.467,-1.467,0,0,0,0,0,0,0,0,-1.4706,-1.4706,-1.4702,-1.4701,-1.4699,-1.4692,-1.4701,-1.4702,-1.4678,-1.4685,-1.4675,-1.4674,-1.4676,-1.4676,-1.4677,-1.4692,-1.4691,-1.467,-1.467,-1.4671,-1.4671,0,0,0,0,0,0,0,-1.4706,-1.4706,-1.4712,-1.4702,-1.47,-1.4693,-1.4692,-1.4701,-1.4686,-1.4684,-1.4682,-1.4682,-1.4675,-1.4676,-1.4676,-1.4691,-1.467,-1.467,-1.4671,-1.4671,-1.4725,-1.4726,0,0,0,0,0,0,-1.4708,-1.4707,-1.4712,-1.4712,-1.47,-1.4694,-1.4693,-1.4695,-1.4686,-1.4684,-1.4682,-1.468,-1.4676,-1.4676,-1.4676,-1.4703,-1.4671,-1.4671,-1.4671,-1.4724,-1.4725,-1.4726,0,0,0,0,0,0,-1.4708,-1.4709,-1.4713,-1.4709,-1.4709,-1.4695,-1.4698,-1.4696,-1.4696,-1.4685,-1.4682,-1.4686,-1.4675,-1.4675,-1.4688,-1.4702,-1.4671,-1.4672,-1.4723,-1.4724,-1.4726,-1.4757,0,0,0,0,0,0,-1.4708,-1.4709,-1.4718,-1.4709,-1.4709,-1.4725,-1.4699,-1.4696,-1.4697,-1.4694,-1.4687,-1.4685,-1.4674,-1.4687,-1.4689,-1.4702,-1.4672,-1.4721,-1.4723,-1.4725,-1.4755,-1.476,-1.4764,0,0,0,0,0,-1.4708,-1.4727,-1.4719,-1.4719,-1.4719,-1.4726,-1.4726,-1.4712,-1.4699,-1.4707,-1.47,-1.4685,-1.4701,-1.4689,-1.469,-1.4704,-1.472,-1.4723,-1.4725,-1.4753,-1.4759,-1.4764,0,0,0,0,0,0,-1.4739,-1.4726,-1.4716,-1.4733,-1.4731,-1.4721,-1.4731,-1.4719,-1.472,-1.4717,-1.4701,-1.47,-1.4715,-1.4711,-1.4698,-1.4727,-1.4708,-1.4711,-1.4729,-1.4734,-1.4739,-1.4739,-1.4673,0,0,0,0,0,-1.4747,-1.4753,-1.4742,-1.4758,-1.4757,-1.4745,-1.4747,-1.4737,-1.4734,-1.4732,-1.4726,-1.4724,-1.4728,-1.4731,-1.4734,-1.4755,-1.4752,-1.4765,-1.477,-1.4773,-1.4776,-1.4786,-1.4791,-1.4734,-1.4734,-1.4734,0,0,-1.4765,-1.4759,-1.4764,-1.4764,-1.4761,-1.4768,-1.4744,-1.4752,-1.4757,-1.4734,-1.4745,-1.4741,-1.4737,-1.4754,-1.4761,-1.4751,-1.4791,-1.4776,-1.4779,-1.478,-1.4789,-1.4794,-1.4799,-1.4736,-1.4736,-1.4735,0,0,-1.4801,-1.4798,-1.481,-1.4808,-1.4803,-1.4795,-1.4798,-1.479,-1.4786,-1.4797,-1.478,-1.4786,-1.4794,-1.4792,-1.4792,-1.4828,-1.4814,-1.4829,-1.4852,-1.4863,-1.4867,-1.4871,-1.4883,-1.4888,-1.4832,-1.4832,-1.4832,0,-1.4824,-1.4833,-1.4819,-1.4828,-1.4828,-1.4808,-1.4821,-1.4819,-1.4816,-1.4817,-1.4806,-1.4815,-1.4812,-1.4827,-1.4836,-1.4837,-1.484,-1.4829,-1.4868,-1.4871,-1.4875,-1.4886,-1.4891,-1.4834,-1.4833,-1.4833,-1.4833,0,-1.4862,-1.4868,-1.4879,-1.4876,-1.4878,-1.489,-1.4877,-1.488,-1.487,-1.4863,-1.4875,-1.487,-1.4872,-1.4875,-1.4865,-1.4889,-1.4883,-1.487,-1.4851,-1.4882,-1.4893,-1.4897,-1.4836,-1.4836,-1.4835,-1.4835,0,0,-1.4916,-1.4905,-1.491,-1.4908,-1.4902,-1.4907,-1.4917,-1.4918,-1.4922,-1.4921,-1.4929,-1.4936,-1.4924,-1.4924,-1.4914,-1.4923,-1.4951,-1.4909,-1.4908,-1.4916,-1.4977,-1.4986,-1.4992,-1.4943,-1.4943,-1.4944,-1.4977,0,-1.495,-1.4966,-1.4953,-1.4972,-1.4978,-1.4959,-1.4968,-1.4965,-1.4959,-1.4963,-1.4956,-1.4961,-1.4945,-1.4945,-1.4953,-1.4946,-1.4963,-1.4944,-1.495,-1.495,-1.495,-1.4997,-1.5007,-1.5039,-1.4981,-1.4982,-1.4983,0,-1.4991,-1.4992,-1.5011,-1.5003,-1.5005,-1.5013,-1.5014,-1.5018,-1.5015,-1.5009,-1.501,-1.4997,-1.5007,-1.4989,-1.5002,-1.4989,-1.4991,-1.4988,-1.4989,-1.4988,-1.4968,-1.4997,-1.5048,-1.5053,-1.4989,-1.4988,-1.4988,0,-1.5028,-1.5034,-1.5046,-1.5045,-1.5037,-1.5043,-1.504,-1.5036,-1.5037,-1.5038,-1.5039,-1.5041,-1.5041,-1.5043,-1.5032,-1.502,-1.5047,-1.5027,-1.5042,-1.5043,-1.5048,-1.5048,-1.5099,-1.5051,-1.5051,-1.5051,-1.505,0,-1.5067,-1.5079,-1.5062,-1.507,-1.5083,-1.5068,-1.5082,-1.5077,-1.5074,-1.508,-1.5064,-1.507,-1.5055,-1.506,-1.5051,-1.5063,-1.5064,-1.506,-1.5057,-1.5061,-1.5061,-1.5061,-1.5059,-1.5052,-1.5052,-1.5051,-1.5051,0,-1.511,-1.5099,-1.5111,-1.5102,-1.51,-1.511,-1.5103,-1.511,-1.5102,-1.511,-1.5112,-1.51,-1.5105,-1.5094,-1.5098,-1.5092,-1.5109,-1.5103,-1.511,-1.5108,-1.5123,-1.5122,-1.5176,-1.5182,-1.513,-1.5131,-1.5131,0,-1.5135,-1.5144,-1.5136,-1.5139,-1.5137,-1.5141,-1.5143,-1.5129,-1.5132,-1.5129,-1.5136,-1.5139,-1.5141,-1.515,-1.5142,-1.5145,-1.5138,-1.5157,-1.5139,-1.5142,-1.5138,-1.5137,-1.5138,-1.5161,-1.5162,-1.5162,-1.5163,0,-1.518,-1.5174,-1.5177,-1.5178,-1.518,-1.518,-1.5179,-1.5183,-1.5168,-1.5172,-1.5176,-1.5178,-1.5181,-1.5185,-1.5186,-1.5183,-1.517,-1.5169,-1.5172,-1.5176,-1.5179,-1.5177,-1.5119,-1.5167,-1.5167,-1.5166,-1.5166,-1.5166,-1.5214,-1.5221,-1.5217,-1.522,-1.5218,-1.5218,-1.5223,-1.5217,-1.522,-1.5222,-1.5214,-1.522,-1.5217,-1.5216,-1.5215,-1.522,-1.5211,-1.5216,-1.5218,-1.5219,-1.5221,-1.5179,-1.522,-1.522,-1.522,-1.522,-1.5219,0,-1.5258,-1.5254,-1.5258,-1.5257,-1.526,-1.5248,-1.5246,-1.525,-1.5255,-1.5253,-1.5255,-1.5261,-1.5264,-1.5257,-1.5259,-1.5264,-1.5259,-1.5265,-1.5265,-1.5264,-1.5229,-1.5225,-1.527,-1.527,-1.527,-1.527,-1.527,-1.527,-1.5281,-1.5292,-1.5286,-1.5296,-1.5292,-1.5298,-1.5298,-1.5298,-1.5296,-1.5302,-1.5305,-1.53,-1.5296,-1.5298,-1.5301,-1.5298,-1.53,-1.5308,-1.5304,-1.5271,-1.5267,-1.5262,-1.5258,-1.5309,-1.5309,-1.5339,-1.5339,-1.5339]}]]